Weather History for KMRF - July, 2012

Change the Weather History Date:

Tuesday, July 3, 2012

  Actual Average Record
Temperature  
Mean Temperature 76 °F -  
Max Temperature 87 °F 85 °F 100 °F (2005)
Min Temperature 64 °F 59 °F 55 °F (2001)
Cooling Degree Days 10    
Growing Degree Days 26 (Base 50)    
Moisture  
Dew Point 60 °F    
Average Humidity 68    
Maximum Humidity 88    
Minimum Humidity 35    
Precipitation  
Precipitation 0.19 in - - ()
Sea Level Pressure  
Sea Level Pressure 30.10 in    
Wind  
Wind Speed 4 mph (SE)    
Max Wind Speed 26 mph    
Max Gust Speed 28 mph    
Visibility 10 miles    
Events Thunderstorm    
Averages and records for this station are not official NWS values.
T = Trace of Precipitation, MM = Missing Value Source: NWS Daily Summary

Daily Weather History Graph

Daily Weather History Graph

Search for Another Location

Airport or City:

Trip Planner

Search our weather history database for the weather conditions in past years. The results will help you decide how hot, cold, wet, or windy it might be!

Date:

Astronomy

Jul. 03, 2012 Rise Set
Actual Time 6:58 AM CDT 9:01 PM CDT
Civil Twilight 6:31 AM CDT 9:29 PM CDT
Nautical Twilight 5:57 AM CDT 10:02 PM CDT
Astronomical Twilight 5:22 AM CDT 10:38 PM CDT
Moon 9:03 PM CDT (7/3) 6:51 AM CDT (7/3)
Length of Visible Light 14h 58m
Length of Day
14h 03m
Full, 100% of the Moon is Illuminated
Jul 3
Full
Jul 3
Full
Jul 10
Last Quarter
Jul 18
New
Jul 26
First Quarter

Hourly Weather History & Observations

Time (CDT) Temp. Heat Index Dew Point Humidity Pressure Visibility Wind Dir Wind Speed Gust Speed Precip Events Conditions
12:15 AM 71.6 °F - 60.8 °F 69% 30.12 in 10.0 mi Calm Calm - N/A   Clear
12:35 AM 69.8 °F - 60.8 °F 73% 30.12 in 10.0 mi Calm Calm - N/A   Clear
12:55 AM 69.8 °F - 60.8 °F 73% 30.11 in 10.0 mi Calm Calm - N/A   Clear
1:15 AM 69.8 °F - 60.8 °F 73% 30.11 in 10.0 mi Calm Calm - N/A   Clear
1:35 AM 69.8 °F - 60.8 °F 73% 30.10 in 10.0 mi Calm Calm - N/A   Clear
1:55 AM 69.8 °F - 60.8 °F 73% 30.10 in 10.0 mi Calm Calm - N/A   Clear
2:15 AM 68.0 °F - 59.0 °F 73% 30.11 in 10.0 mi Calm Calm - N/A   Clear
2:35 AM 68.0 °F - 59.0 °F 73% 30.11 in 10.0 mi Calm Calm - N/A   Clear
2:55 AM 68.0 °F - 59.0 °F 73% 30.10 in 10.0 mi Calm Calm - N/A   Partly Cloudy
3:15 AM 66.2 °F - 59.0 °F 78% 30.10 in 10.0 mi Calm Calm - N/A   Mostly Cloudy
3:35 AM 66.2 °F - 59.0 °F 78% 30.11 in 10.0 mi Calm Calm - N/A   Mostly Cloudy
3:55 AM 68.0 °F - 60.8 °F 78% 30.11 in 10.0 mi SSE 8.1 mph - N/A   Overcast
4:15 AM 69.8 °F - 60.8 °F 73% 30.11 in 10.0 mi SSE 8.1 mph - N/A   Overcast
4:35 AM 68.0 °F - 60.8 °F 78% 30.11 in 10.0 mi SSE 6.9 mph - N/A   Overcast
4:55 AM 66.2 °F - 60.8 °F 83% 30.11 in 10.0 mi SE 8.1 mph - N/A   Mostly Cloudy
5:15 AM 66.2 °F - 59.0 °F 78% 30.11 in 10.0 mi Calm Calm - N/A   Clear
5:35 AM 66.2 °F - 59.0 °F 78% 30.11 in 10.0 mi Calm Calm - N/A   Clear
5:55 AM 64.4 °F - 59.0 °F 83% 30.11 in 10.0 mi Calm Calm - N/A   Clear
6:15 AM 64.4 °F - 57.2 °F 77% 30.11 in 10.0 mi Calm Calm - N/A   Clear
6:35 AM 64.4 °F - 57.2 °F 77% 30.12 in 10.0 mi Calm Calm - N/A   Clear
6:55 AM 64.4 °F - 57.2 °F 77% 30.12 in 10.0 mi Calm Calm - N/A   Clear
7:15 AM 64.4 °F - 59.0 °F 83% 30.11 in 10.0 mi Calm Calm - N/A   Mostly Cloudy
7:35 AM 64.4 °F - 59.0 °F 83% 30.12 in 10.0 mi Calm Calm - N/A   Mostly Cloudy
7:55 AM 66.2 °F - 59.0 °F 78% 30.12 in 10.0 mi Calm Calm - N/A   Scattered Clouds
8:15 AM 68.0 °F - 60.8 °F 78% 30.13 in 10.0 mi Calm Calm - N/A   Mostly Cloudy
8:35 AM 71.6 °F - 60.8 °F 69% 30.13 in 10.0 mi Calm Calm - N/A   Mostly Cloudy
8:55 AM 71.6 °F - 60.8 °F 69% 30.13 in 10.0 mi SSE 13.8 mph - N/A   Scattered Clouds
9:15 AM 73.4 °F - 60.8 °F 65% 30.14 in 10.0 mi SSE 10.4 mph - N/A   Clear
9:35 AM 73.4 °F - 60.8 °F 65% 30.14 in 10.0 mi South 12.7 mph - N/A   Clear
9:55 AM 75.2 °F - 60.8 °F 61% 30.13 in 10.0 mi South 11.5 mph - N/A   Clear
10:15 AM 77.0 °F - 60.8 °F 57% 30.13 in 10.0 mi SSE 10.4 mph - N/A   Clear
10:35 AM 78.8 °F - 60.8 °F 54% 30.13 in 10.0 mi SSE 10.4 mph 16.1 mph N/A   Clear
10:55 AM 78.8 °F - 60.8 °F 54% 30.12 in 10.0 mi SSE 10.4 mph 16.1 mph N/A   Clear
11:15 AM 80.6 °F 81.1 °F 59.0 °F 48% 30.12 in 10.0 mi SSE 6.9 mph 16.1 mph N/A   Clear
11:35 AM 80.6 °F 80.8 °F 57.2 °F 45% 30.12 in 10.0 mi Calm Calm - N/A   Clear
11:55 AM 82.4 °F 82.0 °F 57.2 °F 42% 30.12 in 10.0 mi South 8.1 mph 19.6 mph N/A   Clear
12:15 PM 82.4 °F 82.0 °F 57.2 °F 42% 30.12 in 10.0 mi SSW 9.2 mph 17.3 mph N/A   Clear
12:35 PM 82.4 °F 82.0 °F 57.2 °F 42% 30.12 in 10.0 mi SSW 15.0 mph 25.3 mph N/A   Clear
12:55 PM 82.4 °F 82.0 °F 57.2 °F 42% 30.12 in 10.0 mi Calm Calm - N/A   Clear
1:15 PM 84.2 °F 83.5 °F 57.2 °F 40% 30.11 in 10.0 mi Calm Calm - N/A   Clear
1:35 PM 86.0 °F 84.9 °F 57.2 °F 37% 30.11 in 10.0 mi South 10.4 mph 17.3 mph N/A   Clear
1:55 PM 84.2 °F 83.5 °F 57.2 °F 40% 30.10 in 10.0 mi SE 15.0 mph 23.0 mph N/A   Partly Cloudy
2:15 PM 84.2 °F 83.5 °F 57.2 °F 40% 30.09 in 10.0 mi South 9.2 mph 20.7 mph N/A   Partly Cloudy
2:35 PM 86.0 °F 84.9 °F 57.2 °F 37% 30.08 in 10.0 mi South 10.4 mph 19.6 mph N/A   Scattered Clouds
2:55 PM 87.8 °F 86.5 °F 57.2 °F 35% 30.07 in 10.0 mi South 3.5 mph - N/A   Scattered Clouds
3:15 PM 86.0 °F 84.9 °F 57.2 °F 37% 30.07 in 10.0 mi South 12.7 mph 16.1 mph N/A   Mostly Cloudy
3:35 PM 84.2 °F 84.4 °F 60.8 °F 45% 30.07 in 10.0 mi Calm Calm - N/A   Overcast
3:55 PM 86.0 °F 84.9 °F 57.2 °F 37% 30.05 in 10.0 mi South 9.2 mph - N/A   Scattered Clouds
4:15 PM 84.2 °F 83.5 °F 57.2 °F 40% 30.04 in 10.0 mi SE 12.7 mph 20.7 mph N/A Thunderstorm Mostly Cloudy
4:35 PM 78.8 °F - 60.8 °F 54% 30.08 in 5.0 mi SE 13.8 mph 21.9 mph 0.06 in Thunderstorm Thunderstorm
4:55 PM 69.8 °F - 62.6 °F 78% 30.08 in 7.0 mi WNW 26.5 mph - 0.17 in Thunderstorm Thunderstorm
5:35 PM 69.8 °F - 62.6 °F 78% 30.08 in 10.0 mi North 16.1 mph - N/A Thunderstorm Mostly Cloudy
5:55 PM 69.8 °F - 62.6 °F 78% 30.10 in 10.0 mi ENE 19.6 mph 26.5 mph N/A Thunderstorm Thunderstorm
6:15 PM 64.4 °F - 60.8 °F 88% 30.10 in 10.0 mi East 15.0 mph - N/A Thunderstorm Thunderstorm
6:35 PM 68.0 °F - 60.8 °F 78% 30.09 in 10.0 mi East 17.3 mph - N/A   Overcast
6:55 PM 66.2 °F - 60.8 °F 83% 30.09 in 10.0 mi ENE 23.0 mph 27.6 mph N/A Thunderstorm Overcast
7:15 PM 66.2 °F - 62.6 °F 88% 30.09 in 10.0 mi East 17.3 mph - 0.01 in Thunderstorm Overcast
7:35 PM 66.2 °F - 60.8 °F 83% 30.07 in 10.0 mi East 19.6 mph - 0.01 in   Overcast
7:55 PM 66.2 °F - 62.6 °F 88% 30.07 in 10.0 mi NE 6.9 mph - 0.02 in   Overcast
8:15 PM 66.2 °F - 62.6 °F 88% 30.04 in 10.0 mi East 15.0 mph - N/A   Scattered Clouds
8:35 PM 68.0 °F - 62.6 °F 83% 30.02 in 10.0 mi ESE 13.8 mph - N/A   Clear
8:55 PM 68.0 °F - 62.6 °F 83% 30.00 in 10.0 mi SE 15.0 mph - N/A   Clear
9:15 PM 68.0 °F - 62.6 °F 83% 30.02 in 10.0 mi SE 12.7 mph - N/A   Clear
9:35 PM 69.8 °F - 62.6 °F 78% 30.05 in 10.0 mi Calm Calm - N/A   Clear
9:55 PM 69.8 °F - 62.6 °F 78% 30.05 in 10.0 mi Calm Calm - N/A   Clear
10:15 PM 68.0 °F - 62.6 °F 83% 30.06 in 10.0 mi Calm Calm - N/A   Clear
10:35 PM 68.0 °F - 60.8 °F 78% 30.06 in 10.0 mi Calm Calm - N/A   Clear
10:55 PM 68.0 °F - 60.8 °F 78% 30.08 in 10.0 mi Calm Calm - N/A   Clear
11:15 PM 66.2 °F - 62.6 °F 88% 30.08 in 10.0 mi Calm Calm - N/A   Clear
11:35 PM 66.2 °F - 60.8 °F 83% 30.09 in 10.0 mi Calm Calm - N/A   Clear
11:55 PM 66.2 °F - 60.8 °F 83% 30.10 in 10.0 mi Calm Calm - N/A   Clear